Погода в Старом Селе

Украина / Ровненская область     51°36′34″N   27°07′32″E
темп.,
°C
ветер,
м/с
пор.,
м/с
влажн.,
%
обл.,
%
осадки,
мм/ч
давл.,
гПа
погр.,
м
8 мая, сб
сб800:00+7зсз259696 0.1 1007106
03:00+6зсз3792100 0.1 1008383
06:00+5сз4996100 0.1 1009496
09:00+6сз5886100 0.3 1011944
12:00+5сз5889100 2.3 1013729
15:00+6зсз5993100 3.3 1015954
18:00+8сз510659 0.3 10161502
21:00+4з22805 0.3 101830
9 мая, вс
вс900:00+3з39935 0.0 1020197
03:00+2з36945 0.0 1021131
06:00+1з26965 0.0 1023134
09:00+7зсз35704 0.0 1024542
12:00+12зсз34489 0.0 10241692
15:00+14з33375 0.0 10242085
18:00+14зюз23385 0.0 10241929
21:00+9ююв22615 0.0 102510
10 мая, пн
пн1000:00+7ююв35665 0.0 102575
03:00+6ююв39715 0.0 1026158
06:00+5ююв38758 0.0 1026160
09:00+12ююв475347 0.0 1027411
12:00+17ююв564080 0.0 10261494
15:00+19ююв563965 0.0 10251660
18:00+18юв564554 0.0 10241474
21:00+12юв3106819 0.0 1025270
11 мая, вт
вт1100:00+10юв4127153 0.0 1026307
03:00+8юв3117750 0.0 1026261
06:00+7юв3118261 0.0 1026266
09:00+13юв48515 0.0 1025575
12:00+18юв56350 0.0 10231236
15:00+20вюв46290 0.0 10221529
18:00+20вюв46340 0.0 10201395
21:00+13вюв37660 0.0 1020118
12 мая, ср
ср1200:00+11вюв311830 0.0 1020273
03:00+11вюв410941 0.0 1019427
06:00+8в289846 0.0 1019242
09:00+14вюв3666100 0.0 1017698
12:00+12в3676100 0.0 1016725
15:00+13в4764100 0.1 10151250
18:00+14в576717 0.4 10141097
21:00+10в410875 1.0 1014443